[[{"header":{"parameterUnit":"m.s-1","parameterCategory":1,"la1":30.2991,"la2":30.254,"lo1":-89.0895,"lo2":-89.0444,"dy":0.0017,"dx":0.0017,"nx":28,"ny":28,"refTime":"2025-03-27T03:00:00:Z","depth":0,"parameterNumber":2,"parameterNumberName":"U-component_of_WINDS"},"data":[0,0,0,0,0,0,0,0,0,0,0,0,0,0,0,0,0,0,0,0,0,0,0,0,0,0,0,0,0,0,0,0,0,0,0,0,0,0,0,0,0,0,0,0,0,0,0,0,0,0,0,0,0,0,0,0,0,0,-5.3409,-5.3412,0,-5.3635,-5.3637,-5.364,-5.3676,-5.3674,-5.3672,-5.367,-5.3901,-5.3909,-5.3917,0,0,0,0,0,0,0,0,0,0,0,0,0,-5.3013,-5.302,-5.3409,-5.3412,-5.3415,-5.3634,-5.3637,-5.364,-5.3676,-5.3674,-5.3671,-5.3669,-5.3899,-5.3908,-5.3918,0,0,0,0,0,0,0,0,0,0,0,0,0,-5.3207,-5.3023,-5.3409,-5.3459,-5.3466,-5.3634,-5.3638,-5.3641,-5.3677,-5.3674,-5.3671,-5.3668,-5.3896,-5.3907,-5.3919,-5.4053,0,0,-5.3956,-5.3961,0,0,0,0,0,0,0,0,-5.3196,-5.3221,-5.3449,-5.3456,-5.3464,-5.3624,-5.3583,-5.3779,-5.3678,-5.3597,-5.367,-5.3667,-5.3812,-5.383,-5.3879,-5.4063,-5.4073,-5.3957,-5.3964,-5.3969,-5.3973,0,0,0,0,0,0,0,-5.3182,-5.3212,-5.3498,-5.3452,-5.3461,-5.3472,-5.3496,-5.362,-5.3718,-5.3604,-5.3607,-5.3633,-5.3815,-5.3867,-5.3885,-5.4077,-5.3957,-5.3967,-5.3975,-5.3979,-5.4385,-5.4388,0,0,0,0,0,0,-5.3159,-5.32,-5.3491,-5.3505,-5.332,-5.3481,-5.3508,-5.3576,-5.3717,-5.3735,-5.3635,-5.3634,-5.3848,-5.3871,-5.3893,-5.4059,-5.3969,-5.3981,-5.3987,-5.4381,-5.4385,-5.4389,0,0,0,0,0,0,-5.3151,-5.3185,-5.3482,-5.3354,-5.3392,-5.3491,-5.3567,-5.3582,-5.3634,-5.3741,-5.3759,-5.367,-5.3847,-5.3876,-5.4013,-5.4068,-5.3986,-5.3997,-5.4377,-5.4382,-5.4387,-5.4392,0,0,0,0,0,0,-5.3139,-5.3182,-5.3232,-5.3355,-5.3399,-5.3597,-5.357,-5.3588,-5.3655,-5.3655,-5.3778,-5.3796,-5.3847,-5.3995,-5.4025,-5.4083,-5.4006,-5.4372,-5.4379,-5.4386,-5.4387,-5.4397,-5.4405,0,0,0,0,0,-5.3125,-5.3224,-5.3234,-5.3269,-5.3464,-5.36,-5.3626,-5.3682,-5.3659,-5.3711,-5.378,-5.3792,-5.4058,-5.4009,-5.4043,-5.4105,-5.4369,-5.4377,-5.4385,-5.4383,-5.4395,-5.4405,0,0,0,0,0,0,-5.3104,-5.3241,-5.3254,-5.3395,-5.3486,-5.3606,-5.3673,-5.3692,-5.3791,-5.3787,-5.3854,-5.3881,-5.4015,-5.4075,-5.4018,-5.4243,-5.4212,-5.4227,-5.4198,-5.421,-5.4219,-5.4201,-5.4016,0,0,0,0,0,-5.3117,-5.3215,-5.3329,-5.3443,-5.3488,-5.3573,-5.3635,-5.3671,-5.3767,-5.3806,-5.3885,-5.3978,-5.4083,-5.4151,-5.4253,-5.4397,-5.4425,-5.4457,-5.4466,-5.4473,-5.4484,-5.4567,-5.4582,-5.4416,-5.4416,-5.4415,0,0,-5.3142,-5.3229,-5.3287,-5.3442,-5.3516,-5.3617,-5.3605,-5.3712,-5.3788,-5.3822,-5.3956,-5.4018,-5.4127,-5.4269,-5.4335,-5.4322,-5.4537,-5.4483,-5.4487,-5.4496,-5.4576,-5.4592,-5.4606,-5.4421,-5.442,-5.4419,0,0,-5.324,-5.3316,-5.3419,-5.3495,-5.3609,-5.3665,-5.369,-5.3809,-5.3851,-5.3987,-5.4015,-5.4108,-5.4286,-5.4364,-5.4426,-5.4559,-5.4574,-5.4591,-5.4635,-5.4715,-5.4728,-5.474,-5.4787,-5.4803,-5.4602,-5.4602,-5.4603,0,-5.3257,-5.341,-5.347,-5.3578,-5.3645,-5.3682,-5.3788,-5.3859,-5.4,-5.4047,-5.4031,-5.4258,-5.4334,-5.4495,-5.4527,-5.4577,-5.4609,-5.4575,-5.4721,-5.4734,-5.4746,-5.4791,-5.4809,-5.4604,-5.4604,-5.4603,-5.4603,0,-5.3426,-5.3532,-5.3603,-5.3739,-5.3815,-5.3921,-5.3998,-5.4069,-5.41,-5.4159,-5.4298,-5.4392,-5.4514,-5.4556,-5.4586,-5.4722,-5.4711,-5.4707,-5.4677,-5.4762,-5.4805,-5.4823,-5.4605,-5.4605,-5.4605,-5.4604,0,0,-5.3513,-5.3684,-5.3708,-5.3771,-5.3901,-5.3985,-5.4095,-5.4215,-5.4274,-5.4372,-5.4465,-5.4618,-5.4617,-5.4688,-5.4729,-5.4799,-5.4898,-5.4787,-5.4791,-5.4803,-5.5054,-5.5053,-5.5073,-5.491,-5.4914,-5.4917,-5.5044,0,-5.3626,-5.382,-5.3879,-5.4042,-5.4142,-5.4181,-5.4277,-5.4367,-5.4427,-5.4521,-5.4587,-5.4694,-5.4684,-5.4727,-5.4799,-5.487,-5.4949,-5.4863,-5.4998,-5.5002,-5.4966,-5.5096,-5.5096,-5.5211,-5.5062,-5.5065,-5.5067,0,-5.3781,-5.3882,-5.4055,-5.4175,-5.4219,-5.4303,-5.442,-5.4509,-5.4615,-5.4653,-5.4734,-5.477,-5.4887,-5.4853,-5.5016,-5.4956,-5.5016,-5.506,-5.5066,-5.5079,-5.5037,-5.511,-5.5249,-5.5265,-5.5095,-5.5092,-5.509,0,-5.3826,-5.4006,-5.4133,-5.4186,-5.4329,-5.4387,-5.445,-5.4552,-5.4622,-5.4725,-5.4771,-5.4886,-5.4948,-5.5037,-5.5104,-5.5073,-5.5262,-5.5232,-5.5297,-5.5295,-5.5332,-5.5328,-5.548,-5.5374,-5.5374,-5.5373,-5.5373,0,-5.3944,-5.4048,-5.4155,-5.4233,-5.4352,-5.4421,-5.4537,-5.4602,-5.4694,-5.4786,-5.4828,-5.4914,-5.4997,-5.5095,-5.5149,-5.5276,-5.5304,-5.5339,-5.5351,-5.5334,-5.5329,-5.5372,-5.5365,-5.5378,-5.5377,-5.5376,-5.5375,0,-5.4012,-5.4088,-5.4229,-5.4354,-5.4389,-5.4471,-5.4578,-5.4656,-5.4719,-5.4835,-5.4867,-5.4965,-5.5082,-5.5159,-5.5309,-5.5345,-5.5483,-5.5495,-5.5447,-5.5453,-5.5512,-5.5505,-5.5695,-5.5724,-5.56,-5.5601,-5.5602,0,-5.4081,-5.4162,-5.4297,-5.4361,-5.4424,-5.4528,-5.46,-5.4673,-5.4746,-5.4874,-5.4937,-5.5057,-5.5157,-5.5344,-5.5429,-5.5545,-5.5558,-5.5617,-5.5575,-5.5556,-5.5557,-5.5551,-5.556,-5.5622,-5.5623,-5.5624,-5.5625,0,-5.4195,-5.4229,-5.433,-5.4446,-5.453,-5.4625,-5.472,-5.4771,-5.486,-5.4941,-5.5062,-5.5139,-5.5294,-5.5413,-5.5537,-5.5603,-5.5629,-5.5638,-5.5659,-5.564,-5.5609,-5.5626,-5.5464,-5.5632,-5.5631,-5.5631,-5.563,-5.563,-5.4265,-5.434,-5.4446,-5.4558,-5.4638,-5.4726,-5.4806,-5.488,-5.4981,-5.5112,-5.515,-5.5276,-5.5383,-5.5552,-5.5621,-5.5722,-5.5715,-5.5745,-5.5752,-5.5758,-5.5758,-5.5595,-5.5745,-5.5745,-5.5745,-5.5745,-5.5744,0,-5.438,-5.4451,-5.4554,-5.4686,-5.4775,-5.4793,-5.49,-5.4973,-5.5084,-5.5181,-5.5279,-5.5419,-5.5536,-5.5632,-5.5753,-5.5816,-5.5831,-5.5845,-5.584,-5.5855,-5.5758,-5.5727,-5.5831,-5.5831,-5.5831,-5.5831,-5.583,-5.583,-5.445,-5.4577,-5.4625,-5.4793,-5.4865,-5.4988,-5.5048,-5.513,-5.5208,-5.5363,-5.546,-5.5522,-5.562,-5.5749,-5.5858,-5.5884,-5.5926,-5.5937,-5.5964,-5.5871,-5.5861,-5.5852,-5.5823,-5.5946,-5.5946,-5.6053,-5.6054,-5.6055]},{"header":{"parameterUnit":"m.s-1","parameterCategory":1,"la1":30.2991,"la2":30.254,"lo1":-89.0895,"lo2":-89.0444,"dy":0.0017,"dx":0.0017,"nx":28,"ny":28,"refTime":"2025-03-27T03:00:00:Z","depth":0,"parameterNumber":3,"parameterNumberName":"V-component_of_WINDS"},"data":[0,0,0,0,0,0,0,0,0,0,0,0,0,0,0,0,0,0,0,0,0,0,0,0,0,0,0,0,0,0,0,0,0,0,0,0,0,0,0,0,0,0,0,0,0,0,0,0,0,0,0,0,0,0,0,0,0,0,3.3403,3.3402,0,3.3379,3.3378,3.3378,3.3339,3.3338,3.3337,3.3336,3.3311,3.3311,3.3311,0,0,0,0,0,0,0,0,0,0,0,0,0,3.3415,3.3415,3.3403,3.3402,3.3402,3.3379,3.3378,3.3378,3.3339,3.3338,3.3337,3.3336,3.3311,3.3311,3.3311,0,0,0,0,0,0,0,0,0,0,0,0,0,3.3402,3.3415,3.3403,3.338,3.3377,3.3379,3.3378,3.3378,3.3339,3.3338,3.3337,3.3336,3.3311,3.3311,3.3311,3.3332,0,0,3.3311,3.3311,0,0,0,0,0,0,0,0,3.3403,3.3402,3.3383,3.3381,3.3379,3.336,3.3373,3.3363,3.3339,3.3353,3.3336,3.3335,3.3328,3.3327,3.3324,3.3331,3.333,3.3311,3.3311,3.3311,3.3311,0,0,0,0,0,0,0,3.3404,3.3403,3.3393,3.3383,3.338,3.3371,3.3368,3.3371,3.3347,3.3352,3.3349,3.3347,3.3327,3.3325,3.3324,3.333,3.3311,3.3311,3.3311,3.3311,3.3355,3.3356,0,0,0,0,0,0,3.3408,3.3404,3.3394,3.3392,3.3389,3.3371,3.3368,3.3367,3.3347,3.3343,3.3348,3.3345,3.3325,3.3324,3.3322,3.3347,3.3311,3.3311,3.3311,3.3354,3.3355,3.3356,0,0,0,0,0,0,3.3409,3.3408,3.3395,3.3397,3.3395,3.3372,3.3372,3.3368,3.3365,3.3344,3.3339,3.335,3.3324,3.3322,3.3331,3.3346,3.3311,3.3311,3.3352,3.3354,3.3356,3.3397,0,0,0,0,0,0,3.3409,3.3408,3.3416,3.3398,3.3395,3.3403,3.3373,3.3368,3.3366,3.3362,3.3345,3.3341,3.3323,3.3331,3.3331,3.3345,3.3311,3.3351,3.3353,3.3355,3.3394,3.34,3.3405,0,0,0,0,0,3.341,3.3428,3.3417,3.3416,3.3404,3.3404,3.3403,3.3382,3.3367,3.3375,3.3361,3.3341,3.3344,3.3332,3.3331,3.3346,3.335,3.3352,3.3355,3.3392,3.3399,3.3405,0,0,0,0,0,0,3.3448,3.3425,3.3412,3.3425,3.3417,3.3398,3.3407,3.339,3.3386,3.3383,3.3357,3.3354,3.3366,3.3357,3.3343,3.3367,3.3344,3.3347,3.3372,3.3379,3.3384,3.3386,3.3311,0,0,0,0,0,3.3458,3.346,3.344,3.3454,3.345,3.343,3.3429,3.3414,3.3404,3.3401,3.3387,3.3379,3.3378,3.3378,3.3376,3.3393,3.3389,3.3403,3.3409,3.3413,3.3416,3.3425,3.3432,3.3365,3.3365,3.3365,0,0,3.3479,3.3466,3.3469,3.3461,3.3453,3.3456,3.3427,3.3431,3.3433,3.3401,3.3408,3.3399,3.3388,3.3401,3.3406,3.3394,3.3433,3.3416,3.342,3.342,3.3429,3.3435,3.3441,3.3367,3.3366,3.3366,0,0,3.3518,3.3508,3.3519,3.3512,3.3501,3.3487,3.349,3.3473,3.3466,3.3473,3.345,3.3452,3.3451,3.3444,3.3441,3.3479,3.3461,3.3479,3.3508,3.3517,3.3523,3.3527,3.3542,3.3547,3.3482,3.3482,3.3482,0,3.3545,3.3548,3.3527,3.3533,3.353,3.3503,3.3514,3.3508,3.3496,3.3495,3.3482,3.3481,3.3471,3.3483,3.3493,3.3491,3.3494,3.3481,3.3524,3.3528,3.3532,3.3546,3.3551,3.3485,3.3484,3.3484,3.3484,0,3.3583,3.3586,3.3596,3.3586,3.3585,3.3593,3.3573,3.3575,3.356,3.3548,3.3557,3.3545,3.354,3.3542,3.3527,3.3552,3.3545,3.3528,3.3505,3.3541,3.3554,3.3559,3.3488,3.3487,3.3486,3.3486,0,0,3.3644,3.3624,3.3628,3.3624,3.361,3.3612,3.362,3.3616,3.3618,3.3612,3.3618,3.3618,3.3603,3.3599,3.3584,3.3593,3.3626,3.3575,3.3574,3.3585,3.3653,3.3667,3.3673,3.3614,3.3615,3.3615,3.3655,0,3.3681,3.3693,3.3675,3.3691,3.3695,3.3669,3.3676,3.3668,3.3658,3.3659,3.3647,3.3648,3.3627,3.3625,3.3632,3.362,3.3639,3.3617,3.362,3.362,3.3624,3.3679,3.3693,3.3731,3.3659,3.366,3.3661,0,3.3725,3.3722,3.3739,3.3726,3.3726,3.3733,3.3729,3.373,3.3721,3.3713,3.371,3.3692,3.37,3.3677,3.3687,3.3673,3.3673,3.3667,3.3668,3.3668,3.3643,3.3681,3.3742,3.3748,3.3668,3.3667,3.3667,0,3.377,3.377,3.378,3.3777,3.3761,3.3767,3.376,3.3751,3.375,3.3747,3.3746,3.3743,3.3742,3.3741,3.3723,3.3708,3.3736,3.3712,3.373,3.373,3.3737,3.3737,3.3799,3.3736,3.3736,3.3736,3.3736,0,3.3814,3.3825,3.38,3.3807,3.3819,3.3798,3.3811,3.3802,3.3794,3.3799,3.3776,3.3781,3.3758,3.376,3.3747,3.3758,3.3757,3.3751,3.3748,3.3754,3.3754,3.3753,3.3751,3.3738,3.3737,3.3737,3.3737,0,3.3866,3.3849,3.3859,3.3844,3.384,3.385,3.3837,3.3843,3.3831,3.3837,3.3838,3.3819,3.3821,3.3804,3.3802,3.3793,3.3811,3.3802,3.3814,3.3812,3.3831,3.383,3.3896,3.3904,3.3835,3.3836,3.3837,0,3.3895,3.3903,3.3889,3.3891,3.3886,3.3889,3.3888,3.3868,3.3869,3.386,3.3867,3.3868,3.3867,3.3871,3.3858,3.3857,3.3849,3.3872,3.3848,3.3855,3.385,3.385,3.3851,3.3877,3.3878,3.3878,3.3879,0,3.3949,3.394,3.3941,3.3939,3.3939,3.3936,3.3932,3.3935,3.3913,3.3915,3.3917,3.3917,3.3916,3.3916,3.3913,3.3907,3.389,3.3887,3.3891,3.3897,3.3904,3.3902,3.3828,3.3885,3.3885,3.3884,3.3884,3.3883,3.3991,3.3998,3.3989,3.3991,3.3985,3.3982,3.3987,3.3977,3.3978,3.3976,3.3964,3.3968,3.3961,3.3955,3.395,3.3954,3.3943,3.3949,3.395,3.3952,3.3956,3.3903,3.3953,3.3953,3.3953,3.3952,3.3952,0,3.4044,3.4038,3.4039,3.4035,3.4036,3.402,3.4015,3.4017,3.4022,3.4016,3.4016,3.4019,3.402,3.4007,3.4007,3.4012,3.4004,3.4013,3.4012,3.4012,3.3966,3.3962,3.4019,3.4019,3.4019,3.4019,3.4019,3.4019,3.4072,3.4084,3.4075,3.4083,3.4076,3.4081,3.408,3.4077,3.4072,3.4077,3.4078,3.407,3.4061,3.406,3.4061,3.4057,3.4058,3.407,3.4064,3.4021,3.4015,3.4008,3.4005,3.407,3.407,3.4109,3.4109,3.411]}]]